Content
SEND FEEDBACK

Daily
Averages
Monthly
Summary
French Polynesia

PAPEETE, FRENCH POLYNESIA


Home > Oceania > French Polynesia
Elevation: 7 feet     Latitude: 17 33S     Longitude: 149 36W

WEATHER
 
SELECT A DAY
Number of Records: 208,679;   Date Range: 6/30/96 - 8/10/14
 
SHARE

PRINT THIS DATA

[ ← Previous Day ]
WEATHER ALMANAC - FEBRUARY 10, 2013
[ Next Day → ]
[ °C ]   °F
Weather ElementAverageHighLow
Temperature83.4 °F87.8 °F (10:00 am)78 °F (5:00 am)
Dewpoint73.6 °F75.2 °F (8:30 am)71 °F (11:00 pm)
Humidity71.4 %84 % (10:00 pm)60 % (11:00 am)
Barometer29.91 in29.96 in (8:00 am)29.86 in (2:30 pm)
Wind Speed5.2 mph11.2 mph (2:00 pm)
Weather ElementAverage
Visibility7.5 mi
Wind DirectionESE (120.4 °)

Weather ElementTotal
Precipitation---
Cooling Degree Days17.9 (Base 65)
Growing Degree Days32.9 (Base 50)
Averaged from 55 records on February 10, 2013
WEATHER CONDITIONS BREAKOUT
WIND DIRECTION BREAKOUT
WEATHER BY HOUR - FEBRUARY 10, 2013
[ °C ]   °F
Local TimeTemperatureDewpointHumidityBarometerVisibilityWind DirectionWind SpeedGust SpeedPrecipitationEventsConditions
12:30 AM80.6 °F71.6 °F74 %29.92 in6.2 miEast (90°)5.8 mphScattered Clouds
1:00 AM80.6 °F71.6 °F74 %29.89 in6.2 miEast (80°)6.9 mphScattered Clouds
1:30 AM80.6 °F73.4 °F79 %29.89 in6.2 miENE (70°)4.6 mphPartly Cloudy
2:00 AM80.0 °F72.0 °F71 %29.90 in12.0 miEast (80°)4.6 mphScattered Clouds
2:00 AM80.6 °F71.6 °F74 %29.89 in6.2 miEast (80°)4.6 mphPartly Cloudy
2:30 AM80.6 °F71.6 °F74 %29.89 in6.2 miEast (90°)4.6 mphPartly Cloudy
3:00 AM78.8 °F73.4 °F83 %29.89 in6.2 miEast (90°)5.8 mphPartly Cloudy
3:30 AM78.8 °F71.6 °F78 %29.89 in6.2 miEast (80°)4.6 mph
4:00 AM78.8 °F71.6 °F78 %29.89 in6.2 miEast (90°)4.6 mph
4:30 AM78.8 °F71.6 °F78 %29.89 in6.2 miEast (100°)4.6 mph
5:00 AM78.0 °F72.0 °F77 %29.90 in37.0 miEast (90°)4.6 mphClear
5:00 AM78.8 °F71.6 °F78 %29.89 in6.2 miEast (90°)4.6 mph
5:30 AM78.8 °F73.4 °F83 %29.89 in6.2 miEast (100°)5.8 mph
6:00 AM78.8 °F73.4 °F83 %29.92 in6.2 miESE (110°)3.5 mphMostly Cloudy
6:30 AM78.8 °F73.4 °F83 %29.92 in6.2 miEast (100°)3.5 mphMostly Cloudy
7:00 AM82.4 °F73.4 °F74 %29.92 in6.2 miVariable2.3 mphMostly Cloudy
7:30 AM84.2 °F73.4 °F70 %29.95 in6.2 miVariable2.3 mphMostly Cloudy
8:00 AM85.0 °F74.0 °F63 %29.96 in12.0 miNE (40°)2.3 mphPartly Cloudy
8:00 AM84.2 °F73.4 °F70 %29.95 in6.2 miVariable2.3 mphMostly Cloudy
8:30 AM86.0 °F75.2 °F70 %29.95 in6.2 miNorth (360°)4.6 mphMostly Cloudy
9:00 AM86.0 °F75.2 °F70 %29.95 in6.2 miNorth (10°)5.8 mphMostly Cloudy
9:30 AM86.0 °F75.2 °F70 %29.95 in6.2 miNNE (20°)6.9 mphMostly Cloudy
10:00 AM87.8 °F75.2 °F66 %29.95 in6.2 miNorth (10°)6.9 mphMostly Cloudy
10:30 AM87.8 °F75.2 °F66 %29.95 in6.2 miNorth (10°)8.1 mphMostly Cloudy
11:00 AM87.0 °F75.0 °F60 %29.95 in12.0 miNorth8.1 mphScattered Clouds
11:00 AM87.8 °F75.2 °F66 %29.95 in6.2 miNorth (360°)8.1 mphMostly Cloudy
11:30 AM87.8 °F75.2 °F66 %29.92 in6.2 miNorth (360°)8.1 mphMostly Cloudy
12:00 PM87.8 °F75.2 °F66 %29.92 in6.2 miNorth (360°)8.1 mphMostly Cloudy
12:30 PM87.8 °F75.2 °F66 %29.89 in6.2 miNorth (360°)8.1 mphMostly Cloudy
1:00 PM87.8 °F75.2 °F66 %29.89 in6.2 miNorth (360°)8.1 mphMostly Cloudy
1:30 PM86.0 °F75.2 °F70 %29.89 in6.2 miNorth (10°)5.8 mphMostly Cloudy
2:00 PM86.0 °F75.0 °F62 %29.89 in12.0 miNNE (20°)11.2 mphScattered Clouds
2:00 PM86.0 °F75.2 °F70 %29.89 in6.2 miNNE (20°)5.8 mphMostly Cloudy
2:30 PM86.0 °F75.2 °F70 %29.86 in6.2 miNorth (10°)6.9 mphMostly Cloudy
3:00 PM87.8 °F75.2 °F66 %29.86 in6.2 miNorth (360°)5.8 mphMostly Cloudy
3:30 PM87.8 °F75.2 °F66 %29.86 in6.2 miNorth (360°)5.8 mphMostly Cloudy
4:00 PM87.8 °F75.2 °F66 %29.86 in6.2 miNorth (10°)6.9 mphMostly Cloudy
4:30 PM87.8 °F75.2 °F66 %29.86 in6.2 miNorth (360°)5.8 mphMostly Cloudy
5:00 PM86.0 °F74.0 °F60 %29.88 in12.0 miNorth5.8 mphScattered Clouds
5:00 PM86.0 °F73.4 °F66 %29.86 in6.2 miNorth (360°)5.8 mphMostly Cloudy
5:30 PM84.2 °F73.4 °F70 %29.89 in6.2 miNorth (10°)4.6 mphMostly Cloudy
6:00 PM84.2 °F73.4 °F70 %29.89 in6.2 miNorth (360°)3.5 mphMostly Cloudy
6:30 PM84.2 °F73.4 °F70 %29.89 in6.2 miNNE (20°)3.5 mphMostly Cloudy
7:00 PM84.2 °F73.4 °F70 %29.92 in6.2 miVariable3.5 mphMostly Cloudy
7:30 PM82.4 °F73.4 °F74 %29.92 in6.2 miNE (40°)3.5 mphMostly Cloudy
8:00 PM83.0 °F73.0 °F66 %29.94 in12.0 miEast (80°)2.3 mphScattered Clouds
8:00 PM82.4 °F73.4 °F74 %29.92 in6.2 miVariable2.3 mphMostly Cloudy
8:30 PM82.4 °F73.4 °F74 %29.92 in6.2 miEast (90°)3.5 mphMostly Cloudy
9:00 PM82.4 °F73.4 °F74 %29.92 in6.2 miEast (100°)3.5 mphMostly Cloudy
9:30 PM82.4 °F73.4 °F74 %29.95 in6.2 miEast (100°)3.5 mphMostly Cloudy
10:00 PM80.6 °F75.2 °F84 %29.95 in6.2 miNE (40°)8.1 mphMostly Cloudy
10:30 PM80.6 °F71.6 °F74 %29.95 in6.2 miNorth (350°)8.1 mphMostly Cloudy
11:00 PM80.0 °F71.0 °F67 %29.96 in12.0 miESE (110°)3.5 mphPartly Cloudy
11:00 PM80.6 °F71.6 °F74 %29.95 in6.2 miESE (110°)3.5 mphMostly Cloudy
11:30 PM80.6 °F71.6 °F74 %29.95 in6.2 miESE (110°)2.3 mphMostly Cloudy
Hourly data recorded from NTAA, located miles away from Papeete, French Polynesia







STORIES FROM OUR PARTNERS